Satellite: INMARSAT 3-F1
Catalog number: 23839
Epoch time:      103035.83636825
Element set:     862 
Inclination:        0.0617 deg
RA of node:       340.8332 deg
Eccentricity:    0.0004451
Arg of perigee:   338.0823 deg
Mean anomaly:     180.6096 deg
Mean motion:    1.00271470 rev/day
Decay rate:    1.3000E-007 rev/day^2
Epoch rev:            2507
Checksum:              263

Satellite: ASTRA 1F
Catalog number: 23842
Epoch time:      103023.00000000
Element set:     557 
Inclination:        0.0122 deg
RA of node:       319.8851 deg
Eccentricity:    0.0002995
Arg of perigee:    65.1991 deg
Mean anomaly:     116.0362 deg
Mean motion:    1.00273184 rev/day
Decay rate:    1.2399E-006 rev/day^2
Epoch rev:            2485
Checksum:              244

Satellite: JAS 2
Catalog number: 24278
Epoch time:      103035.93332413
Element set:     578 
Inclination:       98.5336 deg
RA of node:       189.0043 deg
Eccentricity:    0.0349892
Arg of perigee:   251.8626 deg
Mean anomaly:     104.4118 deg
Mean motion:   13.52870617 rev/day
Decay rate:    5.9999E-008 rev/day^2
Epoch rev:           31946
Checksum:              346

Satellite: UNAMSAT
Catalog number: 24305
Epoch time:      103035.71934273
Element set:     669 
Inclination:       82.9395 deg
RA of node:       273.0301 deg
Eccentricity:    0.0028732
Arg of perigee:   239.5220 deg
Mean anomaly:     120.3089 deg
Mean motion:   13.73449793 rev/day
Decay rate:    2.0499E-006 rev/day^2
Epoch rev:           32158
Checksum:              309

Satellite: INMARSAT 3-F2
Catalog number: 24307
Epoch time:      103032.96911458
Element set:     79 
Inclination:        0.0664 deg
RA of node:        16.8716 deg
Eccentricity:    0.0004612
Arg of perigee:   287.1197 deg
Mean anomaly:     161.0756 deg
Mean motion:    1.00270670 rev/day
Decay rate:   -1.3400E-006 rev/day^2
Epoch rev:            2345
Checksum:              269

Satellite: HOT BIRD 2
Catalog number: 24665
Epoch time:      103022.98977813
Element set:     340 
Inclination:        0.0347 deg
RA of node:       162.8644 deg
Eccentricity:    0.0004202
Arg of perigee:   151.1719 deg
Mean anomaly:     177.1880 deg
Mean motion:    1.00271548 rev/day
Decay rate:    9.9999E-009 rev/day^2
Epoch rev:            2299
Checksum:              314

Satellite: INMARSAT 3-F3
Catalog number: 24674
Epoch time:      103035.42499436
Element set:     983 
Inclination:        0.0357 deg
RA of node:       320.4141 deg
Eccentricity:    0.0004330
Arg of perigee:   344.4937 deg
Mean anomaly:     160.3632 deg
Mean motion:    1.00274457 rev/day
Decay rate:    3.4999E-007 rev/day^2
Epoch rev:            2244
Checksum:              289

Satellite: GOES 10
Catalog number: 24786
Epoch time:      103034.69938454
Element set:     530 
Inclination:        0.1013 deg
RA of node:       107.3218 deg
Eccentricity:    0.0003109
Arg of perigee:   217.8905 deg
Mean anomaly:     285.6834 deg
Mean motion:    1.00287178 rev/day
Decay rate:    7.5999E-007 rev/day^2
Epoch rev:            2118
Checksum:              303

Satellite: INMARSAT 3-F4
Catalog number: 24819
Epoch time:      103035.33036087
Element set:     875 
Inclination:        0.0882 deg
RA of node:       290.8640 deg
Eccentricity:    0.0003947
Arg of perigee:    72.0402 deg
Mean anomaly:     196.0543 deg
Mean motion:    1.00273774 rev/day
Decay rate:   -2.9099E-006 rev/day^2
Epoch rev:            2086
Checksum:              298

Satellite: FENGYUN 2A
Catalog number: 24834
Epoch time:      103032.62147551
Element set:     952 
Inclination:        2.5306 deg
RA of node:        88.6477 deg
Eccentricity:    0.0003238
Arg of perigee:   268.9222 deg
Mean anomaly:      83.0864 deg
Mean motion:    1.00260410 rev/day
Decay rate:   -1.9900E-006 rev/day^2
Epoch rev:            2066
Checksum:              274

Satellite: HOT BIRD 3
Catalog number: 24931
Epoch time:      103023.22766377
Element set:     421 
Inclination:        0.0604 deg
RA of node:       227.5595 deg
Eccentricity:    0.0010036
Arg of perigee:    81.3762 deg
Mean anomaly:     268.1866 deg
Mean motion:    1.00274291 rev/day
Decay rate:    9.9999E-009 rev/day^2
Epoch rev:            1980
Checksum:              302

Satellite: METEOSAT 7
Catalog number: 24932
Epoch time:      103036.14549770
Element set:     242 
Inclination:        0.1892 deg
RA of node:        55.0854 deg
Eccentricity:    0.0001296
Arg of perigee:   238.5661 deg
Mean anomaly:     253.7886 deg
Mean motion:    1.00277057 rev/day
Decay rate:   -3.9999E-008 rev/day^2
Epoch rev:            1988
Checksum:              331

Satellite: ASTRA 1G
Catalog number: 25071
Epoch time:      103023.00000000
Element set:     388 
Inclination:        0.0122 deg
RA of node:       319.8851 deg
Eccentricity:    0.0002995
Arg of perigee:    65.1991 deg
Mean anomaly:     116.0322 deg
Mean motion:    1.00273184 rev/day
Decay rate:    1.2399E-006 rev/day^2
Epoch rev:            1887
Checksum:              243

Satellite: INMARSAT 3-F5
Catalog number: 25153
Epoch time:      103035.83782975
Element set:     839 
Inclination:        0.4536 deg
RA of node:       357.6188 deg
Eccentricity:    0.0004473
Arg of perigee:   319.4892 deg
Mean anomaly:     144.0877 deg
Mean motion:    1.00275464 rev/day
Decay rate:    1.3799E-006 rev/day^2
Epoch rev:            1836
Checksum:              337

Satellite: HOT BIRD 4
Catalog number: 25237
Epoch time:      103013.80550721
Element set:     325 
Inclination:        0.0242 deg
RA of node:       116.4838 deg
Eccentricity:    0.0007929
Arg of perigee:   193.6371 deg
Mean anomaly:     105.7449 deg
Mean motion:    1.00276095 rev/day
Decay rate:    1.0700E-006 rev/day^2
Epoch rev:            1818
Checksum:              265

Satellite: NOAA 15
Catalog number: 25338
Epoch time:      103035.96924493
Element set:     999 
Inclination:       98.5501 deg
RA of node:        58.4874 deg
Eccentricity:    0.0010775
Arg of perigee:     1.9118 deg
Mean anomaly:     358.2100 deg
Mean motion:   14.24237779 rev/day
Decay rate:    1.6499E-006 rev/day^2
Epoch rev:           24586
Checksum:              348

Satellite: RESURS O1-N4
Catalog number: 25394
Epoch time:      103036.21421566
Element set:     440 
Inclination:       98.6352 deg
RA of node:       114.3898 deg
Eccentricity:    0.0002051
Arg of perigee:   126.5030 deg
Mean anomaly:     233.6338 deg
Mean motion:   14.23872276 rev/day
Decay rate:    1.2100E-006 rev/day^2
Epoch rev:           23763
Checksum:              278

Satellite: TMSAT
Catalog number: 25396
Epoch time:      103035.97011131
Element set:     824 
Inclination:       98.6295 deg
RA of node:       113.3420 deg
Eccentricity:    0.0003274
Arg of perigee:   153.1916 deg
Mean anomaly:     206.9434 deg
Mean motion:   14.23506414 rev/day
Decay rate:   -4.3000E-007 rev/day^2
Epoch rev:           23759
Checksum:              276

Satellite: TECHSAT 1B
Catalog number: 25397
Epoch time:      103035.63506632
Element set:     135 
Inclination:       98.6227 deg
RA of node:       111.9131 deg
Eccentricity:    0.0001642
Arg of perigee:   150.2515 deg
Mean anomaly:     209.8757 deg
Mean motion:   14.22956023 rev/day
Decay rate:   -4.3000E-007 rev/day^2
Epoch rev:           23751
Checksum:              275

Satellite: ASTRA 2A
Catalog number: 25462
Epoch time:      103023.69277567
Element set:     529 
Inclination:        0.0332 deg
RA of node:        23.2945 deg
Eccentricity:    0.0014243
Arg of perigee:   166.1651 deg
Mean anomaly:     210.9165 deg
Mean motion:    1.00270553 rev/day
Decay rate:    9.9999E-009 rev/day^2
Epoch rev:            1618
Checksum:              292

Satellite: EUTELSAT W2
Catalog number: 25491
Epoch time:      103034.84678898
Element set:     572 
Inclination:        0.0026 deg
RA of node:       329.6009 deg
Eccentricity:    0.0003696
Arg of perigee:   331.9696 deg
Mean anomaly:     152.8258 deg
Mean motion:    1.00271574 rev/day
Decay rate:    9.6999E-007 rev/day^2
Epoch rev:            1590
Checksum:              334

Satellite: HOT BIRD 5
Catalog number: 25495
Epoch time:      103034.83168378
Element set:     497 
Inclination:        0.0135 deg
RA of node:       177.1706 deg
Eccentricity:    0.0004078
Arg of perigee:   128.9421 deg
Mean anomaly:     159.9706 deg
Mean motion:    1.00274965 rev/day
Decay rate:    1.4900E-006 rev/day^2
Epoch rev:            1587
Checksum:              309

Satellite: SEDSAT 1
Catalog number: 25509
Epoch time:      103035.73413772
Element set:     772 
Inclination:       31.4279 deg
RA of node:       231.3027 deg
Eccentricity:    0.0357663
Arg of perigee:   182.1138 deg
Mean anomaly:     177.7925 deg
Mean motion:   14.27410520 rev/day
Decay rate:    7.4800E-006 rev/day^2
Epoch rev:           22333
Checksum:              290

Satellite: PAN SAT
Catalog number: 25520
Epoch time:      103035.97864957
Element set:     636 
Inclination:       28.4590 deg
RA of node:       314.3667 deg
Eccentricity:    0.0005515
Arg of perigee:   201.0861 deg
Mean anomaly:     158.9512 deg
Mean motion:   15.13808697 rev/day
Decay rate:    2.9060E-005 rev/day^2
Epoch rev:           23552
Checksum:              314

Satellite: ISS (ZARYA)
Catalog number: 25544
Epoch time:      103036.49214120
Element set:     658 
Inclination:       51.6370 deg
RA of node:       321.6960 deg
Eccentricity:    0.0005519
Arg of perigee:   116.1046 deg
Mean anomaly:     226.5451 deg
Mean motion:   15.60326561 rev/day
Decay rate:    2.6868E-004 rev/day^2
Epoch rev:           24045
Checksum:              280

